Weather History for KBFL - March, 2014

Change the Weather History Date:

Wednesday, March 26, 2014

  Actual Average Record
Temperature  
Mean Temperature 60 °F 59 °F  
Max Temperature 67 °F 70 °F 87 °F (1997)
Min Temperature 52 °F 47 °F 21 °F (1907)
Degree Days  
Heating Degree Days 5    
Month to date heating degree days 73  
Since 1 July heating degree days 1401  
Cooling Degree Days 0    
Month to date cooling degree days 19  
Year to date cooling degree days 28  
Growing Degree Days 10 (Base 50)    
Moisture  
Dew Point 45 °F    
Average Humidity 62    
Maximum Humidity 77    
Minimum Humidity 46    
Precipitation  
Precipitation 0.01 in 0.03 in 0.87 in (1924)
Month to date precipitation 0.05 1.05  
Year to date precipitation 0.49 3.45  
Since 1 July precipitation 1.56  
Snow  
Snow 0.00 in - - ()
Month to date snowfall 0.0  
Since 1 July snowfall 0.0  
Snow Depth 0.00 in    
Sea Level Pressure  
Sea Level Pressure 29.89 in    
Wind  
Wind Speed 10 mph (NW)    
Max Wind Speed 22 mph    
Max Gust Speed 26 mph    
Visibility 10 miles    
Events Rain    
T = Trace of Precipitation, MM = Missing Value Source: NWS Daily Summary

Daily Weather History Graph

Daily Weather History Graph

Search for Another Location

Airport or City:

Trip Planner

Search our weather history database for the weather conditions in past years. The results will help you decide how hot, cold, wet, or windy it might be!

Date:

Astronomy

Mar. 26, 2014 Rise Set
Actual Time 6:51 AM PDT 7:12 PM PDT
Civil Twilight 6:25 AM PDT 7:38 PM PDT
Nautical Twilight 5:55 AM PDT 8:08 PM PDT
Astronomical Twilight 5:25 AM PDT 8:38 PM PDT
Moon 3:54 AM PDT (3/26) 3:05 PM PDT (3/26)
Length of Visible Light 13h 12m
Length of Day
12h 21m
Waning Crescent, 21% of the Moon is Illuminated
Mar 26
Waning Crescent
Mar 30
New
Apr 7
First Quarter
Apr 15
Full
Apr 22
Last Quarter

Hourly Weather History & Observations

Time (PDT) Temp. Dew Point Humidity Pressure Visibility Wind Dir Wind Speed Gust Speed Precip Events Conditions
12:54 AM 59.0 °F 46.0 °F 62% 29.86 in 10.0 mi NNW 5.8 mph - N/A   Mostly Cloudy
1:54 AM 59.0 °F 46.9 °F 64% 29.85 in 10.0 mi NNW 11.5 mph - N/A   Overcast
2:54 AM 57.9 °F 46.0 °F 65% 29.85 in 10.0 mi NW 19.6 mph - N/A   Overcast
3:54 AM 57.0 °F 45.0 °F 64% 29.84 in 10.0 mi WNW 15.0 mph - N/A   Mostly Cloudy
4:24 AM 55.9 °F 44.1 °F 64% 29.85 in 10.0 mi WNW 18.4 mph - N/A   Overcast
4:54 AM 57.0 °F 43.0 °F 59% 29.85 in 10.0 mi NW 17.3 mph - N/A   Overcast
5:52 AM 55.4 °F 44.6 °F 67% 29.88 in 10.0 mi WNW 15.0 mph - 0.00 in   Overcast
5:54 AM 55.9 °F 44.1 °F 64% 29.87 in 10.0 mi WNW 15.0 mph - 0.00 in   Overcast
6:54 AM 55.9 °F 44.1 °F 64% 29.89 in 10.0 mi NW 13.8 mph - N/A   Mostly Cloudy
7:54 AM 55.9 °F 44.1 °F 64% 29.91 in 10.0 mi NW 12.7 mph - N/A   Overcast
8:54 AM 55.9 °F 46.0 °F 69% 29.91 in 10.0 mi NW 4.6 mph - 0.00 in   Overcast
9:54 AM 59.0 °F 43.0 °F 55% 29.91 in 10.0 mi WSW 9.2 mph - N/A   Partly Cloudy
10:54 AM 62.1 °F 41.0 °F 46% 29.92 in 10.0 mi WSW 10.4 mph 16.1 mph N/A   Scattered Clouds
11:54 AM 59.0 °F 45.0 °F 60% 29.93 in 8.0 mi West 13.8 mph - 0.00 in Rain Light Rain
12:54 PM 62.1 °F 44.1 °F 52% 29.91 in 10.0 mi Variable 5.8 mph - 0.00 in Rain Light Rain
1:54 PM 64.9 °F 39.9 °F 40% 29.88 in 10.0 mi Variable 4.6 mph - 0.00 in   Mostly Cloudy
2:54 PM 64.9 °F 39.0 °F 39% 29.87 in 10.0 mi WNW 9.2 mph 23.0 mph 0.00 in Rain Light Rain
3:54 PM 62.1 °F 43.0 °F 50% 29.87 in 10.0 mi NNW 11.5 mph - 0.00 in Rain Light Rain
4:54 PM 63.0 °F 43.0 °F 48% 29.87 in 10.0 mi NNW 8.1 mph - 0.00 in   Overcast
5:54 PM 60.1 °F 48.9 °F 67% 29.88 in 10.0 mi North 6.9 mph - 0.00 in Rain Light Rain
6:54 PM 57.9 °F 50.0 °F 75% 29.90 in 10.0 mi North 15.0 mph - 0.00 in Rain Light Rain
7:01 PM 57.0 °F 51.1 °F 81% 29.90 in 7.0 mi North 15.0 mph - 0.00 in Rain Light Rain
7:54 PM 55.9 °F 50.0 °F 80% 29.91 in 10.0 mi NNE 6.9 mph - 0.01 in   Clear
8:54 PM 57.0 °F 48.0 °F 72% 29.94 in 10.0 mi NNW 8.1 mph - N/A   Overcast
9:54 PM 55.0 °F 48.0 °F 77% 29.96 in 10.0 mi NNW 5.8 mph - N/A   Mostly Cloudy
10:54 PM 54.0 °F 46.9 °F 77% 29.96 in 10.0 mi North 5.8 mph - N/A   Mostly Cloudy
11:54 PM 53.1 °F 44.1 °F 71% 29.97 in 10.0 mi NW 6.9 mph - N/A   Mostly Cloudy